Snowfall_Accumulation
nan nan nan nan nan nan nan 0.0 2.6 0.0 0.0 0.5 0.0 0.1 0.0 nan 0.0 0.0 0.0 0.0 0.0 0.0 0.0 0.0 0.0 0.0 0.0 0.0 0.0 0.0 0.0 0.0 0.0 0.0 0.0 0.0 0.0 0.0 0.0 0.1 0.0 0.0 0.1 0.2
nan nan nan nan nan nan 0.0 0.3 0.0 0.0 0.0 1.4 0.2 0.0 0.0 0.0 0.0 0.0 0.0 0.0 0.0 0.0 0.0 0.0 0.0 0.0 0.0 0.0 0.0 0.0 0.0 0.0 0.0 0.0 0.0 0.0 0.0 0.0 0.0 0.0 0.0 0.0 1.4 0.1
nan nan nan nan nan nan 0.0 1.1 3.6 0.1 0.0 0.0 0.0 0.0 0.0 0.0 0.0 0.0 0.0 0.0 0.0 0.0 0.0 0.0 0.0 0.0 0.0 0.0 0.0 nan nan 0.0 0.0 0.0 0.0 0.0 0.0 0.0 0.0 0.0 0.2 0.0 0.0 0.0
nan nan nan nan nan nan 0.0 0.8 2.2 0.0 1.7 0.4 0.0 0.0 0.0 0.0 0.0 0.0 0.0 0.0 0.0 0.0 0.0 0.0 0.0 0.0 0.0 0.0 nan 0.0 0.0 0.0 0.0 0.0 0.0 0.0 0.0 0.0 0.0 0.0 0.0 0.1 0.0 0.0
nan nan nan nan nan nan 0.0 3.8 0.2 0.0 0.0 0.0 0.0 0.0 0.0 0.0 0.0 0.0 0.0 0.0 0.0 0.0 0.0 0.0 0.0 0.0 0.0 0.0 0.0 0.0 0.0 0.0 0.0 0.0 0.0 0.0 0.0 0.0 0.0 0.0 0.0 0.0 0.0 0.0
nan nan nan nan nan nan 0.1 0.0 0.0 0.0 nan 0.0 0.1 0.0 0.1 0.0 0.0 0.0 0.0 0.0 0.0 0.0 0.0 0.0 0.0 0.0 0.0 0.0 0.0 0.0 0.0 0.0 0.1 0.0 0.0 0.0 0.3 0.0 0.0 0.0 0.0 0.0 0.0 0.0
nan nan nan nan nan nan 0.0 0.0 0.0 0.1 0.9 0.0 0.0 0.0 0.0 0.0 0.0 0.0 0.0 0.0 0.0 0.0 0.0 0.0 0.0 0.0 0.0 0.0 0.0 0.0 0.0 0.0 0.0 0.5 0.3 1.1 0.0 0.0 0.0 0.0 0.0 0.0 0.0 0.0
nan nan nan nan nan nan 0.0 0.0 0.0 0.0 1.6 0.0 0.0 0.0 0.0 0.0 0.0 0.0 0.0 0.0 0.0 0.0 0.0 0.1 0.0 0.2 0.0 0.0 0.0 0.0 0.0 0.0 0.5 2.1 0.2 0.0 0.0 0.0 0.0 0.0 0.0 0.0 0.0 0.0
nan nan nan nan nan nan 0.0 0.0 0.0 0.0 0.1 0.1 0.0 0.0 0.0 0.0 0.0 0.0 0.0 0.0 0.0 0.0 0.0 0.2 0.7 1.5 0.7 0.3 0.0 0.0 0.0 0.0 0.2 0.9 0.6 2.2 0.0 0.0 0.0 0.0 0.0 0.0 0.0 0.0
nan nan nan nan nan nan 0.0 0.0 0.0 0.0 0.7 0.0 0.0 0.0 0.0 0.0 0.0 0.0 0.0 0.0 0.0 0.0 0.3 3.5 2.1 0.7 0.0 0.9 0.8 0.5 0.4 0.4 0.9 0.7 2.0 0.3 0.0 0.0 0.0 0.3 0.0 0.0 0.0 0.0
nan nan nan nan nan nan 0.0 0.0 0.0 0.0 0.3 0.0 0.0 0.0 0.0 0.0 0.0 0.0 0.0 0.1 0.1 0.2 0.5 2.3 0.5 1.3 0.1 0.1 0.0 0.0 0.2 0.7 2.1 1.0 2.4 2.1 0.0 0.0 0.0 0.0 0.0 0.0 0.0 0.0
nan nan nan nan nan nan nan 0.0 0.0 0.0 0.0 0.0 0.0 0.0 0.0 0.0 0.0 0.0 0.0 0.0 0.0 0.0 0.0 0.5 0.3 1.3 1.7 0.0 0.5 0.0 0.4 0.1 0.2 0.0 0.2 0.0 0.0 0.0 0.0 0.0 0.0 0.0 0.0 0.0
nan nan nan nan nan nan nan 0.0 0.0 0.0 0.0 0.0 0.0 0.0 0.0 0.0 0.0 0.0 0.0 0.0 0.0 0.0 0.0 0.0 0.1 0.3 0.1 1.1 0.2 0.0 0.0 0.0 0.1 0.0 0.0 0.0 0.0 0.0 0.0 0.0 0.0 0.0 0.0 0.0
nan nan nan nan nan nan nan 0.0 0.0 0.0 0.0 2.1 0.1 0.0 0.0 0.0 0.0 0.0 0.0 0.0 0.0 0.0 0.0 0.2 0.5 1.2 0.0 0.2 0.1 0.0 0.0 0.0 0.0 0.0 0.0 0.0 0.0 0.0 0.0 0.0 0.0 0.0 0.0 0.0
nan nan nan nan nan nan nan 0.0 0.0 0.0 0.0 0.7 0.1 0.0 0.0 0.0 0.0 0.0 0.0 0.0 0.0 0.0 0.2 1.4 0.4 0.0 0.2 0.1 0.1 0.1 0.0 0.0 0.1 0.1 0.0 0.0 0.0 0.0 0.0 0.0 0.0 0.0 0.0 0.0
nan nan nan nan nan nan 0.0 0.1 0.0 0.0 0.0 0.2 1.3 0.0 0.0 0.0 0.0 0.0 0.0 0.0 0.0 0.0 0.0 0.4 0.1 0.0 0.0 2.1 0.2 0.0 0.0 0.0 0.0 0.0 0.0 0.0 0.0 0.0 0.0 0.0 0.0 0.0 0.0 0.0
nan nan nan nan nan 0.0 0.0 0.0 0.0 nan 0.0 0.3 3.5 0.5 0.0 0.0 0.0 0.0 0.0 0.0 0.0 0.0 0.1 0.2 0.1 0.1 0.0 0.8 0.4 0.0 0.0 0.0 0.0 0.0 0.0 0.0 0.0 0.0 0.0 0.0 0.0 0.0 0.0 0.0
nan nan nan nan nan nan 0.0 0.0 nan nan 0.0 0.1 5.0 1.5 0.4 0.0 0.2 0.3 0.0 0.1 0.1 0.1 0.1 0.3 0.3 0.1 0.3 0.4 0.0 0.0 0.0 0.0 0.0 0.0 0.0 0.0 0.0 0.0 0.0 0.0 0.0 0.0 0.0 0.0
nan nan nan 0.0 0.0 0.0 0.0 nan nan 0.0 0.1 1.6 4.8 2.3 5.3 0.0 0.1 0.2 0.2 0.0 1.0 0.1 0.7 0.3 0.1 0.4 0.6 0.0 0.0 0.0 0.0 0.0 0.0 0.0 0.0 0.0 0.0 0.0 0.0 0.0 0.0 0.0 0.0 0.0
nan 0.0 0.0 4.7 0.1 nan nan 0.0 0.3 0.3 0.2 0.3 1.8 0.2 1.8 0.4 1.3 0.7 0.4 0.4 1.3 2.9 0.9 0.0 0.7 0.2 0.0 0.0 0.0 0.0 0.0 0.0 0.0 0.0 0.0 0.0 0.0 0.0 0.0 0.0 0.0 0.0 0.0 0.0
0.0 0.2 0.6 0.0 nan 0.0 0.2 2.8 4.5 0.9 2.1 0.3 0.2 0.1 0.6 0.1 3.4 3.3 0.5 2.7 2.2 4.6 0.5 0.9 0.7 0.4 0.0 0.0 0.0 0.0 0.0 0.0 0.0 0.0 0.0 0.0 0.0 0.0 0.0 0.0 0.0 0.0 0.0 0.0
0.0 0.0 0.0 0.0 0.2 0.9 3.4 7.4 4.5 1.0 0.4 0.3 0.6 0.3 0.1 0.5 0.3 1.7 3.3 3.2 4.8 3.4 0.1 2.7 1.5 0.4 0.0 0.0 0.0 0.0 0.0 0.0 0.0 0.0 0.0 0.0 0.0 0.0 0.0 0.0 0.1 0.1 0.2 2.9
0.0 0.2 1.7 0.5 5.6 26.6 8.3 5.8 3.9 5.3 0.7 1.4 1.2 5.1 0.5 0.8 0.6 4.2 4.8 9.6 7.4 0.4 6.0 0.9 0.5 0.1 0.1 0.0 0.0 0.0 0.0 0.2 0.0 0.0 0.0 0.0 0.0 0.0 0.1 0.4 0.5 1.5 2.1 2.4
0.7 5.4 29.0 7.9 10.8 2.9 2.0 0.9 1.0 1.0 1.4 0.9 0.6 1.4 1.5 2.3 4.5 4.2 10.6 3.7 1.2 8.9 5.7 3.0 0.7 0.2 0.1 0.3 0.3 0.0 0.0 0.3 0.8 0.1 0.2 0.3 0.5 1.1 2.2 4.3 4.9 4.1 2.9 3.9
3.2 2.2 20.8 8.2 3.3 2.7 2.6 2.0 1.6 0.8 0.7 0.6 1.2 2.0 1.6 7.2 11.5 4.5 3.6 11.0 9.6 5.0 4.4 2.6 1.4 0.7 0.6 0.7 0.7 0.7 0.7 1.4 1.1 1.0 1.6 3.7 3.0 1.9 2.7 3.4 3.2 1.7 4.1 4.1
2.5 2.9 5.1 3.2 6.6 12.3 9.3 6.0 5.1 0.6 0.8 0.7 1.1 5.7 10.5 9.2 6.8 5.7 6.1 4.0 4.1 5.1 2.6 1.9 1.2 1.3 1.4 1.3 1.3 1.8 2.0 2.6 3.1 3.0 2.6 3.0 3.8 3.7 2.9 2.1 2.4 5.9 5.0 7.8
3.9 10.4 3.4 3.3 5.6 9.9 7.7 4.5 2.6 0.3 1.9 10.6 4.4 8.3 6.9 2.3 5.3 4.1 2.5 8.4 4.8 2.6 2.4 2.3 1.7 1.9 2.2 2.3 2.2 3.3 2.5 2.6 2.6 2.7 1.9 2.2 2.1 1.6 1.0 1.6 1.2 0.4 0.4 5.0
Water_Equivalent
nan nan nan nan nan nan nan 0.00 0.60 0.00 0.00 0.08 0.00 0.03 0.00 nan 0.00 0.00 0.00 0.00 0.00 0.00 0.00 0.00 0.00 0.00 0.00 0.00 0.00 0.00 0.00 0.00 0.00 0.00 0.00 0.00 0.00 0.00 0.00 0.03 0.00 0.01 0.02 0.05
nan nan nan nan nan nan 0.00 0.10 0.00 0.00 0.00 0.22 0.04 0.00 0.00 0.00 0.00 0.00 0.00 0.00 0.00 0.00 0.00 0.01 0.00 0.00 0.00 0.00 0.00 0.00 0.00 0.00 0.01 0.00 0.00 0.00 0.00 0.00 0.00 0.00 0.01 0.00 0.38 0.04
nan nan nan nan nan nan 0.00 0.31 0.65 0.03 0.00 0.00 0.00 0.01 0.00 0.00 0.00 0.00 0.00 0.00 0.00 0.00 0.00 0.00 0.00 0.00 0.00 0.00 0.00 nan nan 0.00 0.00 0.00 0.00 0.00 0.00 0.00 0.00 0.00 0.08 0.01 0.00 0.00
nan nan nan nan nan nan 0.00 0.29 0.37 0.01 0.29 0.10 0.00 0.00 0.00 0.00 0.00 0.00 0.00 0.00 0.00 0.00 0.00 0.00 0.00 0.00 0.00 0.00 nan 0.00 0.00 0.00 0.00 0.00 0.00 0.00 0.00 0.00 0.00 0.00 0.00 0.02 0.00 0.00
nan nan nan nan nan nan 0.00 1.00 0.03 0.00 0.00 0.00 0.01 0.00 0.00 0.00 0.00 0.00 0.00 0.00 0.00 0.00 0.00 0.00 0.00 0.00 0.00 0.00 0.00 0.00 0.00 0.00 0.00 0.00 0.00 0.00 0.00 0.00 0.00 0.00 0.00 0.00 0.00 0.00
nan nan nan nan nan nan 0.02 0.00 0.00 0.00 nan 0.00 0.01 0.01 0.02 0.00 0.00 0.00 0.00 0.00 0.00 0.00 0.00 0.00 0.00 0.00 0.00 0.00 0.00 0.00 0.00 0.01 0.03 0.00 0.00 0.00 0.09 0.00 0.00 0.00 0.00 0.00 0.00 0.00
nan nan nan nan nan nan 0.00 0.00 0.00 0.03 0.16 0.00 0.00 0.00 0.00 0.00 0.00 0.00 0.00 0.00 0.00 0.00 0.00 0.00 0.00 0.00 0.00 0.00 0.00 0.00 0.00 0.00 0.02 0.18 0.10 0.28 0.00 0.00 0.00 0.00 0.00 0.00 0.00 0.00
nan nan nan nan nan nan 0.00 0.00 0.00 0.00 0.55 0.00 0.00 0.00 0.00 0.00 0.00 0.00 0.00 0.00 0.00 0.00 0.00 0.02 0.01 0.08 0.01 0.01 0.00 0.00 0.00 0.00 0.16 0.58 0.07 0.00 0.00 0.00 0.00 0.00 0.00 0.00 0.00 0.00
nan nan nan nan nan nan 0.00 0.00 0.00 0.00 0.04 0.01 0.00 0.00 0.00 0.00 0.00 0.00 0.00 0.00 0.00 0.00 0.00 0.06 0.11 0.33 0.18 0.05 0.01 0.00 0.00 0.00 0.07 0.26 0.13 0.55 0.00 0.00 0.00 0.00 0.02 0.00 0.00 0.00
nan nan nan nan nan nan 0.00 0.00 0.00 0.00 0.14 0.00 0.00 0.00 0.00 0.00 0.00 0.00 0.00 0.00 0.00 0.00 0.13 1.38 0.70 0.20 0.00 0.20 0.14 0.14 0.13 0.12 0.24 0.18 0.47 0.10 0.00 0.00 0.00 0.09 0.01 0.00 0.00 0.00
nan nan nan nan nan nan 0.00 0.00 0.00 0.00 0.06 0.00 0.00 0.00 0.00 0.00 0.00 0.02 0.00 0.04 0.03 0.06 0.16 0.90 0.17 0.46 0.04 0.03 0.00 0.01 0.05 0.21 0.64 0.32 0.69 0.55 0.00 0.00 0.00 0.01 0.00 0.00 0.00 0.00
nan nan nan nan nan nan nan 0.00 0.00 0.00 0.00 0.00 0.00 0.00 0.00 0.00 0.00 0.00 0.00 0.00 0.00 0.00 0.01 0.19 0.13 0.45 0.67 0.01 0.15 0.00 0.11 0.02 0.06 0.01 0.07 0.00 0.00 0.00 0.00 0.00 0.00 0.00 0.00 0.00
nan nan nan nan nan nan nan 0.00 0.00 0.00 0.01 0.00 0.00 0.00 0.00 0.00 0.00 0.00 0.00 0.00 0.00 0.00 0.00 0.00 0.06 0.08 0.02 0.43 0.06 0.01 0.00 0.00 0.03 0.00 0.00 0.00 0.00 0.00 0.00 0.00 0.00 0.00 0.00 0.00
nan nan nan nan nan nan nan 0.00 0.00 0.00 0.00 0.56 0.02 0.00 0.00 0.00 0.00 0.00 0.00 0.00 0.00 0.00 0.00 0.09 0.16 0.38 0.00 0.07 0.03 0.01 0.00 0.00 0.00 0.00 0.00 0.00 0.00 0.00 0.00 0.00 0.00 0.00 0.00 0.00
nan nan nan nan nan nan nan 0.00 0.00 0.00 0.00 0.21 0.05 0.00 0.00 0.00 0.00 0.00 0.00 0.00 0.00 0.00 0.09 0.57 0.17 0.00 0.07 0.04 0.03 0.05 0.00 0.00 0.05 0.05 0.00 0.00 0.00 0.00 0.00 0.00 0.00 0.00 0.00 0.00
nan nan nan nan nan nan 0.00 0.02 0.00 0.00 0.00 0.06 0.42 0.00 0.00 0.00 0.00 0.00 0.00 0.00 0.00 0.00 0.01 0.16 0.02 0.00 0.02 0.81 0.09 0.00 0.00 0.00 0.00 0.00 0.00 0.00 0.00 0.00 0.00 0.00 0.00 0.00 0.00 0.00
nan nan nan nan nan 0.00 0.02 0.01 0.00 nan 0.00 0.13 1.28 0.17 0.00 0.00 0.00 0.00 0.00 0.00 0.00 0.00 0.02 0.10 0.04 0.03 0.00 0.31 0.15 0.00 0.00 0.00 0.00 0.00 0.00 0.00 0.00 0.00 0.00 0.00 0.00 0.00 0.00 0.00
nan nan nan nan nan nan 0.00 0.00 nan nan 0.00 0.04 1.86 0.52 0.16 0.00 0.08 0.11 0.00 0.03 0.04 0.05 0.02 0.11 0.10 0.04 0.12 0.14 0.00 0.00 0.00 0.00 0.00 0.00 0.00 0.00 0.00 0.00 0.00 0.00 0.00 0.00 0.00 0.00
nan nan nan 0.00 0.00 0.01 0.00 nan nan 0.00 0.03 0.60 1.92 0.88 1.74 0.00 0.03 0.09 0.07 0.02 0.39 0.06 0.27 0.13 0.04 0.16 0.23 0.00 0.00 0.00 0.00 0.00 0.00 0.00 0.00 0.00 0.00 0.00 0.00 0.00 0.00 0.00 0.00 0.00
nan 0.00 0.00 1.06 0.05 nan nan 0.00 0.13 0.10 0.09 0.12 0.68 0.07 0.63 0.12 0.47 0.27 0.15 0.15 0.51 1.09 0.36 0.00 0.30 0.08 0.00 0.00 0.00 0.00 0.00 0.00 0.00 0.00 0.00 0.00 0.00 0.00 0.00 0.00 0.00 0.00 0.00 0.00
0.00 0.07 0.23 0.00 nan 0.00 0.09 0.75 1.37 0.32 0.82 0.10 0.08 0.04 0.20 0.04 1.20 1.09 0.20 1.07 0.87 1.46 0.14 0.32 0.25 0.14 0.00 0.00 0.00 0.00 0.00 0.00 0.00 0.00 0.00 0.00 0.00 0.00 0.00 0.00 0.00 0.00 0.00 0.01
0.00 0.01 0.00 0.00 0.08 0.35 1.34 2.47 1.42 0.36 0.13 0.13 0.22 0.13 0.04 0.22 0.11 0.52 1.25 1.09 1.45 0.91 0.05 0.91 0.40 0.11 0.00 0.00 0.00 0.01 0.00 0.00 0.00 0.00 0.00 0.00 0.00 0.00 0.00 0.00 0.02 0.03 0.04 0.55
0.00 0.06 0.69 0.22 2.18 5.82 2.60 1.50 1.09 1.73 0.26 0.58 0.50 2.03 0.19 0.30 0.22 1.52 1.61 2.57 1.85 0.15 1.69 0.23 0.14 0.02 0.03 0.00 0.00 0.00 0.00 0.06 0.00 0.00 0.00 0.00 0.00 0.00 0.02 0.07 0.08 0.28 0.29 0.32
0.27 2.14 6.52 2.72 3.21 0.76 0.52 0.29 0.37 0.40 0.54 0.34 0.23 0.55 0.53 0.83 1.40 1.36 2.94 0.97 0.40 2.08 1.23 0.65 0.15 0.03 0.02 0.05 0.06 0.00 0.00 0.07 0.23 0.02 0.04 0.05 0.09 0.16 0.35 0.73 0.84 0.64 0.36 0.49
1.12 0.85 4.03 1.89 0.87 0.76 0.80 0.76 0.63 0.33 0.26 0.26 0.45 0.65 0.42 1.66 2.97 1.12 0.95 2.46 2.01 0.98 0.85 0.56 0.31 0.12 0.09 0.10 0.11 0.10 0.11 0.26 0.19 0.14 0.25 0.65 0.46 0.26 0.34 0.46 0.41 0.22 0.64 0.63
0.77 0.87 1.36 1.00 2.06 3.58 3.07 2.21 1.81 0.23 0.30 0.26 0.37 1.25 2.39 2.01 1.48 1.13 1.23 0.75 0.73 1.01 0.54 0.37 0.18 0.19 0.21 0.19 0.20 0.26 0.29 0.37 0.42 0.38 0.33 0.39 0.54 0.53 0.35 0.25 0.35 0.99 0.91 1.32
1.13 2.41 0.96 0.91 1.61 2.37 2.01 1.34 0.70 0.12 0.68 3.05 1.08 1.75 1.14 0.50 1.08 0.69 0.45 1.62 0.93 0.49 0.40 0.38 0.24 0.26 0.30 0.33 0.31 0.53 0.35 0.34 0.35 0.35 0.24 0.26 0.25 0.21 0.14 0.22 0.13 0.05 0.06 0.98
SL_Ratio
nan nan nan nan nan nan nan nan 4.3 nan nan 5.8 3.3 4.4 nan nan nan nan nan nan nan nan nan 4.4 nan nan nan nan nan nan nan nan nan nan nan nan nan nan nan 2.8 nan 2.9 3.0 3.8
nan nan nan nan nan nan nan 3.0 3.3 nan nan 6.2 5.9 3.3 nan nan nan nan nan nan nan nan nan 5.4 nan nan nan nan nan nan nan nan 2.9 nan nan nan nan nan nan nan 2.8 nan 3.8 3.7
nan nan nan nan nan nan nan 3.7 5.6 4.2 nan nan nan 5.6 6.0 nan nan nan nan nan nan nan nan nan nan nan nan nan nan nan nan nan nan 0.0 nan nan nan nan nan nan 3.1 3.0 nan nan
nan nan nan nan nan nan nan 2.9 6.0 4.5 5.9 3.8 nan nan nan nan nan nan nan nan nan nan nan nan 5.0 nan nan nan nan nan nan nan nan nan nan nan nan nan nan nan nan 3.2 nan nan
nan nan nan nan nan nan nan 3.8 5.8 nan nan nan 3.9 nan nan nan nan nan nan nan nan nan nan nan 5.3 nan 3.3 2.5 nan nan nan nan nan nan nan nan nan nan nan nan nan nan nan nan
nan nan nan nan nan nan 2.5 nan nan nan nan 0.0 6.3 5.0 5.6 nan nan nan nan nan nan nan nan nan nan nan nan nan nan 2.5 nan 2.4 3.0 nan nan 0.0 3.5 nan nan nan nan nan nan nan
nan nan nan nan nan nan nan nan nan 4.4 5.8 5.8 6.7 nan nan nan nan nan nan nan nan nan nan nan nan nan nan nan nan nan nan nan 2.5 3.1 3.3 4.0 4.0 nan nan nan nan nan nan nan
nan nan nan nan nan nan nan nan nan 3.6 2.9 5.8 5.0 nan nan nan nan nan nan nan nan nan nan 2.5 4.7 2.7 3.0 2.6 nan nan nan 2.2 3.2 3.7 3.2 0.0 nan nan nan nan nan nan nan nan
nan nan nan nan nan nan nan nan nan nan 2.9 6.2 nan nan nan nan nan nan nan nan nan nan 3.3 2.5 6.4 4.4 4.2 5.3 3.4 nan nan nan 2.5 3.6 4.8 4.0 nan nan nan nan 3.1 nan nan nan
nan nan nan nan nan nan nan nan nan 0.0 4.9 nan nan 4.0 6.7 nan nan 2.3 nan nan nan nan 2.5 2.5 3.0 3.4 nan 4.7 5.7 3.6 3.1 3.1 3.8 3.7 4.2 3.2 nan nan nan 3.5 3.2 nan nan nan
nan nan nan nan nan nan nan nan nan 4.3 5.2 5.0 nan nan nan nan nan 2.5 nan 2.5 2.5 2.5 2.9 2.6 2.8 2.9 2.5 2.9 6.7 5.6 4.3 3.3 3.4 3.2 3.5 3.9 nan nan 2.9 2.7 nan nan nan nan
nan nan nan nan nan nan nan nan nan nan nan 5.8 nan nan nan nan nan nan nan nan nan nan 2.5 2.8 2.6 2.8 2.5 3.0 3.2 nan 3.4 2.9 2.7 2.8 3.0 nan nan nan nan nan nan nan nan nan
nan nan nan nan nan nan nan nan nan nan 2.9 5.0 5.0 nan nan nan nan nan nan 2.7 nan nan nan nan 2.5 3.7 2.5 2.6 2.5 2.6 nan nan 2.6 2.7 nan nan nan nan nan nan nan nan nan nan
nan nan nan nan nan nan nan nan nan nan 2.7 3.7 3.9 nan nan nan nan nan nan nan nan nan nan 2.5 2.8 3.1 nan 2.5 2.5 2.6 nan nan nan nan nan nan nan nan nan nan nan nan nan nan
nan nan nan nan nan nan nan nan nan nan 5.0 3.5 2.5 nan nan nan nan nan nan nan nan nan 2.5 2.5 2.5 2.5 2.8 2.5 2.5 2.4 nan nan 2.5 2.5 nan nan nan nan nan nan nan nan nan nan
nan nan nan nan nan nan nan 3.0 nan nan nan 2.7 3.0 0.0 nan nan nan nan nan nan nan nan 2.5 2.5 2.5 nan 2.4 2.6 2.6 nan nan nan nan nan nan nan nan nan nan nan nan nan nan nan
nan nan nan nan nan nan 3.1 3.4 nan nan nan 2.5 2.7 2.8 nan nan nan nan nan nan nan nan 2.5 2.5 2.5 2.5 2.5 2.6 2.6 nan nan nan nan nan nan nan nan nan nan nan nan nan nan nan
nan nan nan nan nan nan nan nan nan nan nan 2.5 2.7 2.9 2.6 nan 2.5 2.5 nan 2.5 2.5 2.5 2.5 2.5 2.5 2.5 2.5 2.5 nan nan nan nan nan nan nan nan nan nan nan nan nan nan nan nan
nan nan nan nan nan 2.6 0.0 nan nan nan 2.5 2.7 2.5 2.7 3.0 2.5 2.5 2.5 2.5 2.5 2.5 2.5 2.5 2.5 2.5 2.5 2.5 nan nan nan nan nan nan nan nan nan nan nan nan nan nan nan nan nan
nan nan 4.0 4.5 2.5 nan nan 2.5 2.6 2.5 2.5 2.5 2.6 2.5 2.8 3.7 2.8 2.5 2.5 2.5 2.6 2.6 2.5 2.7 2.5 2.5 nan nan nan nan nan nan nan nan nan nan nan nan nan nan nan nan nan nan
nan 2.5 2.7 nan nan nan 2.6 3.7 3.3 2.9 2.6 2.5 2.5 2.5 3.3 2.5 2.9 3.0 2.5 2.5 2.5 3.2 3.3 2.7 2.8 2.9 nan nan nan nan nan nan nan nan nan nan nan nan nan nan nan nan 2.9 5.0
nan 2.5 nan 3.0 2.5 2.5 2.5 3.0 3.2 2.9 2.9 2.5 2.5 2.5 2.5 2.5 2.5 3.4 2.7 3.0 3.3 3.8 2.5 2.9 3.7 3.7 nan nan nan 2.3 nan nan nan nan nan nan nan nan 10.0 6.7 5.6 5.2 5.6 5.3
nan 2.5 2.5 2.5 2.6 4.6 3.2 3.9 3.6 3.1 2.5 2.5 2.5 2.5 2.5 2.6 2.6 2.7 3.0 3.7 4.0 2.8 3.5 4.0 3.6 4.2 3.8 nan nan nan nan 2.5 nan nan nan 5.0 6.3 10.0 4.9 5.8 6.2 5.5 7.4 7.5
2.5 2.5 4.4 2.9 3.4 3.8 3.9 3.2 2.7 2.5 2.5 2.5 2.5 2.5 2.9 2.7 3.2 3.1 3.6 3.8 3.1 4.3 4.6 4.6 4.7 5.7 5.7 6.3 4.8 5.0 7.5 4.1 3.6 4.2 5.4 5.3 5.9 7.3 6.3 5.9 5.8 6.4 8.0 7.9
2.9 2.5 5.2 4.4 3.8 3.5 3.2 2.6 2.5 2.6 2.5 2.5 2.7 3.0 3.7 4.3 3.9 4.0 3.8 4.5 4.8 5.1 5.1 4.5 4.6 6.4 6.1 6.4 6.7 7.1 7.0 5.4 5.9 7.3 6.2 5.8 6.5 7.4 8.0 7.5 7.7 7.7 6.4 6.5
3.2 3.3 3.8 3.2 3.2 3.4 3.0 2.7 2.8 2.6 2.8 2.6 2.9 4.5 4.4 4.6 4.6 5.1 5.0 5.3 5.6 5.1 4.7 4.9 6.3 6.8 6.8 6.7 6.5 6.9 7.0 7.0 7.3 7.8 7.9 7.6 7.1 7.0 8.5 8.2 7.0 5.9 5.5 6.0
3.4 4.3 3.5 3.6 3.5 4.2 3.8 3.4 3.8 2.8 2.7 3.5 4.1 4.7 6.0 4.6 4.9 6.0 5.5 5.2 5.1 5.3 5.9 6.2 7.0 7.4 7.4 7.1 7.1 6.3 7.0 7.5 7.4 7.6 7.8 8.2 8.2 7.8 7.3 7.1 9.1 8.5 7.2 5.0